Вернуться в каталог

TIANQI 16

АктивенСвязьLEO
NORAD 64058·PAYLOAD·🇨🇳 China

Запущен May 19, 2025 с Yellow Sea Launch Area

Loading…

Ближайшие Пролёты (ближайшие 24 часа)

TLE

СвежийSource: Space-Track

Эпоха: Sep 14, 2026, 16:00 UTC

1 64058U 25105A   26257.66735324  .00000074  00000-0  13897-3 0  9996
2 64058  44.9858 344.2541 0009561  85.7864 274.4061 13.99177825 67723

Отслеживайте TIANQI 16 в реальном времени с AllMySat

Download on the App Store